Location: La Pernelle
(49.6188°N, 1.2999°W)
Time: 15:24:15
(UTC+00:00)

SL-8 R/B - Pass Details

Date: 12 June 2021
Orbit: 656 x 667 km, 48.4° (Epoch: 04 August)

Event Time Altitude Azimuth Distance (km) Brightness Sun altitude
Rises 22:51:51 0° 278° (W) 2,990 7.4 -15.4°
Reaches altitude 10° 22:54:13 10° 276° (W) 2,075 6.5 -15.5°
Maximum altitude 22:58:56 64° 195° (SSW) 731 3.6 -15.7°
Enters shadow 23:02:46 15° 117° (ESE) 1,734 5.5 -15.9°
